FW0173 Weather Reports


time (UTC)temp
F
wind
direction
speed
knots
gust
knots
rain 1hr
in
rain 24hr
in
rain mn
in
humidity
%
barometer
mb
20260505153016 62 11 0.0 4.3 0.00 1.32 1.32 96 1012.8
20260505151515 61 27 0.9 3.5 0.00 1.32 1.32 96 1012.7
20260505124510 60 118 0.0 1.7 0.00 1.32 1.32 97 1013.0
20260505123011 60 194 0.0 3.5 0.00 1.32 1.32 97 1012.8
20260505121509 60 149 0.0 3.5 0.00 1.32 1.32 97 1012.6
20260505120007 59 124 0.0 2.6 0.00 1.32 1.32 97 1012.5
20260505114507 59 211 0.0 1.7 0.00 1.32 1.32 97 1012.5
20260505113006 59 153 0.0 3.5 0.00 1.32 1.32 97 1012.4
20260505111506 59 124 0.0 2.6 0.00 1.32 1.32 97 1012.3
20260505101503 59 125 0.9 4.3 0.01 1.31 1.31 97 1013.1
20260505100005 59 39 0.0 0.0 0.03 1.31 1.31 97 1013.3
20260505094700 59 143 0.0 0.0 0.05 1.31 1.31 97 1013.3
20260505093106 59 157 0.0 0.9 0.34 1.31 1.31 97 1013.3
20260505091558 58 113 0.0 1.7 0.39 1.30 1.30 96 1013.5
20260505090057 58 21 0.0 0.9 0.38 1.28 1.28 96 1013.6
20260505084557 58 23 0.0 1.7 0.36 1.25 1.25 96 1013.6
20260505083102 58 313 0.0 0.9 0.13 0.97 0.97 96 1014.3
20260505081557 58 355 0.0 0.9 0.62 0.91 0.91 96 1013.0
20260505080108 58 24 0.0 2.6 0.68 0.90 0.90 95 1013.3
20260505074552 59 54 0.0 2.6 0.77 0.89 0.89 95 1013.7
20260505073050 59 44 0.9 12.2 0.78 0.84 0.84 94 1014.0
20260505071547 60 322 0.0 4.3 0.24 0.28 0.28 94 1014.0
20260505070047 61 352 1.7 3.5 0.19 0.22 0.22 92 1013.2
20260505064543 62 34 0.0 0.9 0.12 0.12 0.12 90 1013.0
20260505063039 63 244 0.0 2.6 0.06 0.06 0.06 88 1014.6
20260505061534 64 139 1.7 4.3 0.05 0.05 0.05 82 1012.4
20260505060036 65 205 0.0 4.3 0.03 0.03 0.03 80 1013.5
20260505054525 67 113 0.0 3.5 0.00 0.00 0.00 73 1014.0
20260505053024 67 262 0.0 4.3 0.00 0.00 0.00 70 1014.1
20260505051521 67 139 0.9 3.5 0.00 0.00 0.00 70 1013.5
20260505041516 67 122 0.0 1.7 0.00 0.00 0.00 72 1013.7
20260505040015 67 135 0.0 5.2 0.00 0.00 0.00 72 1013.7
20260505034514 67 315 0.0 4.3 0.00 0.00 0.00 71 1014.1
20260505033014 68 188 0.0 2.6 0.00 0.00 0.00 71 1014.2
20260505031515 68 105 0.0 2.6 0.00 0.00 0.00 70 1014.1
20260505030012 68 131 0.0 3.5 0.00 0.00 0.00 70 1014.2
20260505024511 68 100 0.0 2.6 0.00 0.00 0.00 70 1014.2
20260505023011 68 139 0.0 3.5 0.00 0.00 0.00 70 1014.0
20260505021511 68 247 0.0 0.0 0.00 0.00 0.00 69 1014.0
20260505020012 69 247 0.0 0.9 0.00 0.00 0.00 68 1013.7
20260505014507 70 149 0.0 0.9 0.00 0.00 0.00 66 1013.5
20260505013106 70 256 0.0 2.6 0.00 0.00 0.00 66 1013.4
20260505011505 71 254 0.0 3.5 0.00 0.00 0.00 64 1013.2
20260505010003 72 235 0.9 5.2 0.00 0.00 0.00 63 1013.0
20260505004610 72 120 0.9 5.2 0.00 0.00 0.00 62 1012.9
20260505003058 73 240 0.9 4.3 0.00 0.00 0.00 61 1012.9
20260505001620 74 183 0.9 6.1 0.00 0.00 0.00 59 1012.8
20260505000108 75 165 0.9 6.1 0.00 0.00 0.00 58 1012.8
20260504234558 76 291 1.7 7.0 0.00 0.00 0.00 57 1012.8
20260504233110 76 217 1.7 6.1 0.00 0.00 0.00 55 1012.7
20260504231555 77 240 3.5 7.8 0.00 0.00 0.00 54 1012.7
20260504230056 77 288 1.7 8.7 0.00 0.00 0.00 54 1012.7
20260504224553 79 72 2.6 9.6 0.00 0.00 0.00 52 1012.7
20260504223052 79 92 2.6 7.8 0.00 0.00 0.00 52 1012.7
20260504221550 78 257 2.6 9.6 0.00 0.00 0.00 52 1012.6
20260504220049 79 269 0.9 10.4 0.00 0.00 0.00 53 1012.7
20260504214547 79 165 1.7 12.2 0.00 0.00 0.00 52 1013.2
20260504213049 80 118 1.7 8.7 0.00 0.00 0.00 51 1013.2
20260504211545 79 122 2.6 10.4 0.00 0.00 0.00 52 1013.3
20260504210043 78 290 3.5 11.3 0.00 0.00 0.00 52 1013.7
20260504204542 79 65 3.5 8.7 0.00 0.00 0.00 51 1013.6
20260504203046 79 302 2.6 9.6 0.00 0.00 0.00 53 1013.7
20260504201541 79 281 3.5 12.2 0.00 0.00 0.00 51 1013.9
20260504200037 79 127 2.6 13.0 0.00 0.00 0.00 53 1014.2
20260504194536 79 278 2.6 8.7 0.00 0.00 0.00 52 1014.2
20260504193034 79 63 2.6 10.4 0.00 0.00 0.00 53 1014.4
20260504191532 79 274 3.5 9.6 0.00 0.00 0.00 52 1014.8
20260504190030 79 254 3.5 8.7 0.00 0.00 0.00 52 1014.8
20260504184529 78 124 2.6 12.2 0.00 0.00 0.00 54 1014.8
20260504183027 78 210 2.6 9.6 0.00 0.00 0.00 54 1015.0
20260504181526 78 293 2.6 8.7 0.00 0.00 0.00 55 1015.1
20260504180022 77 111 3.5 8.7 0.00 0.00 0.00 55 1015.4
20260504174520 76 133 3.5 8.7 0.00 0.00 0.00 55 1015.6
20260504173021 76 109 1.7 7.8 0.00 0.00 0.00 55 1015.8
20260504171523 75 307 5.2 11.3 0.00 0.00 0.00 55 1016.0